Weather History for Hamburg Airport, Germany

Change the Weather History Date:

Saturday, January 19, 2013

  Actual Average Record
Temperature  
Mean Temperature 23 °F -  
Max Temperature 25 °F 38 °F 53 °F (2008)
Min Temperature 19 °F 29 °F 19 °F (2013)
Degree Days  
Heating Degree Days 42    
Moisture  
Dew Point 18 °F    
Average Humidity 77    
Maximum Humidity 86    
Minimum Humidity 62    
Precipitation  
Precipitation 0.00 in 0.06 in - ()
Sea Level Pressure  
Sea Level Pressure 29.71 in    
Wind  
Wind Speed 12 mph ()    
Max Wind Speed 18 mph    
Max Gust Speed 25 mph    
Visibility 8.7 miles    
Events      
Averages and records for this station are not official NWS values.
T = Trace of Precipitation, MM = Missing Value Source: Averaged Metar Reports

Daily Weather History Graph

Daily Weather History Graph

Search for Another Location

Airport:

Trip Planner

Search our weather history database for the weather conditions in past years. The results will help you decide how hot, cold, wet, or windy it might be!

Date:

Astronomy

Jan. 19, 2013 Rise Set
Actual Time 8:24 AM CET 4:37 PM CET
Civil Twilight 7:43 AM CET 5:18 PM CET
Nautical Twilight 7:00 AM CET 6:01 PM CET
Astronomical Twilight 6:18 AM CET 6:43 PM CET
Moon 11:07 AM CET (1/19) 1:26 AM CET (1/19)
Length of Visible Light 9h 34m
Length of Day
8h 13m
First Quarter, 54% of the Moon is Illuminated
Jan 19
First Quarter
Jan 27
Full
Feb 3
Last Quarter
Feb 10
New
Feb 17
First Quarter

Hourly Weather History & Observations

Time (CET) Temp. Windchill Dew Point Humidity Pressure Visibility Wind Dir Wind Speed Gust Speed Precip Events Conditions
12:00 AM 27 °F - 19 °F 63% 29.83 in 19 mi East 15.7 mph - -   Mostly Cloudy
12:20 AM 26.6 °F 15.2 °F 19.4 °F 74% 29.80 in 6.2 mi East 13.8 mph 25.3 mph N/A   Mostly Cloudy
12:50 AM 26.6 °F 15.2 °F 19.4 °F 74% 29.80 in 6.2 mi East 13.8 mph - N/A   Mostly Cloudy
1:00 AM 27 °F - 19 °F 62% 29.82 in 25 mi East 13.4 mph - -   Mostly Cloudy
1:20 AM 26.6 °F 14.3 °F 19.4 °F 74% 29.80 in 6.2 mi ESE 16.1 mph - N/A   Mostly Cloudy
1:50 AM 26.6 °F 16.2 °F 19.4 °F 74% 29.77 in 6.2 mi East 11.5 mph - N/A   Mostly Cloudy
2:00 AM 26 °F - 19 °F 66% 29.80 in 25 mi East 11.2 mph - -   Mostly Cloudy
2:20 AM 26.6 °F 16.8 °F 19.4 °F 74% 29.77 in 6.2 mi East 10.4 mph - N/A   Mostly Cloudy
2:50 AM 26.6 °F 15.2 °F 19.4 °F 74% 29.77 in 6.2 mi East 13.8 mph - N/A   Mostly Cloudy
3:00 AM 26 °F - 18 °F 63% 29.79 in 25 mi East 13.4 mph - -   Mostly Cloudy
3:20 AM 26.6 °F 15.2 °F 19.4 °F 74% 29.77 in 6.2 mi East 13.8 mph - N/A   Mostly Cloudy
3:50 AM 26.6 °F 14.7 °F 19.4 °F 74% 29.74 in 6.2 mi East 15.0 mph - N/A   Mostly Cloudy
4:20 AM 24.8 °F 13.4 °F 19.4 °F 80% 29.74 in 6.2 mi ENE 12.7 mph - N/A   Partly Cloudy
4:50 AM 23.0 °F 11.7 °F 19.4 °F 86% 29.74 in 6.2 mi East 11.5 mph - N/A   Partly Cloudy
5:00 AM 24 °F - 18 °F 70% 29.76 in 25 mi East 11.2 mph - -   Scattered Clouds
5:20 AM 23.0 °F 11.7 °F 17.6 °F 80% 29.74 in 6.2 mi East 11.5 mph - N/A   Partly Cloudy
5:50 AM 23.0 °F 13.1 °F 17.6 °F 80% 29.74 in 6.2 mi East 9.2 mph - N/A   Mostly Cloudy
6:00 AM 23 °F - 18 °F 73% 29.75 in 25 mi East 8.9 mph - -   Mostly Cloudy
6:20 AM 23.0 °F 11.7 °F 19.4 °F 86% 29.74 in 6.2 mi East 11.5 mph - N/A   Mostly Cloudy
6:50 AM 23.0 °F 12.4 °F 19.4 °F 86% 29.71 in 6.2 mi East 10.4 mph - N/A   Mostly Cloudy
7:00 AM 23 °F - 18 °F 74% 29.74 in 19 mi East 11.2 mph - -   Mostly Cloudy
7:20 AM 23.0 °F 11.1 °F 17.6 °F 80% 29.71 in 6.2 mi East 12.7 mph - N/A   Mostly Cloudy
7:50 AM 23.0 °F 11.1 °F 17.6 °F 80% 29.71 in 6.2 mi East 12.7 mph - N/A   Mostly Cloudy
8:00 AM 24 °F - 18 °F 67% 29.73 in 19 mi East 11.2 mph - -   Mostly Cloudy
8:20 AM 24.8 °F 13.4 °F 17.6 °F 74% 29.71 in 6.2 mi East 12.7 mph - N/A   Mostly Cloudy
8:50 AM 24.8 °F 13.4 °F 17.6 °F 74% 29.71 in 6.2 mi East 12.7 mph - N/A   Mostly Cloudy
9:00 AM 24 °F - 18 °F 67% 29.73 in 10 mi East 13.4 mph - -   Mostly Cloudy
9:20 AM 21.2 °F 12.6 °F 17.6 °F 86% 29.71 in 6.2 mi NE 6.9 mph - N/A   Scattered Clouds
9:50 AM 21.2 °F 10.1 °F 17.6 °F 86% 29.71 in 6.2 mi ENE 10.4 mph - N/A   Mostly Cloudy
10:20 AM 21.2 °F 10.9 °F 17.6 °F 86% 29.71 in 6.2 mi ENE 9.2 mph - N/A   Mostly Cloudy
10:50 AM 23.0 °F 12.4 °F 17.6 °F 80% 29.71 in 6.2 mi ENE 10.4 mph - N/A   Partly Cloudy
11:00 AM 23 °F - 17 °F 71% 29.73 in 7 mi ENE 8.9 mph - -   Partly Cloudy
11:20 AM 23.0 °F 11.7 °F 19.4 °F 86% 29.71 in 6.2 mi ENE 11.5 mph - N/A   Mostly Cloudy
11:50 AM 24.8 °F 13.4 °F 19.4 °F 80% 29.71 in 6.2 mi ENE 12.7 mph - N/A   Mostly Cloudy
12:00 PM 24 °F - 19 °F 73% 29.72 in 9 mi ENE 13.4 mph - -   Mostly Cloudy
12:20 PM 24.8 °F 13.4 °F 19.4 °F 80% 29.68 in 6.2 mi East 12.7 mph - N/A   Mostly Cloudy
12:50 PM 24.8 °F 12.9 °F 19.4 °F 80% 29.68 in 6.2 mi East 13.8 mph - N/A   Mostly Cloudy
1:00 PM 24 °F - 19 °F 72% 29.71 in 11 mi East 13.4 mph - -   Mostly Cloudy
1:20 PM 24.8 °F 14.0 °F 19.4 °F 80% 29.68 in 6.2 mi East 11.5 mph 24.2 mph N/A   Mostly Cloudy
1:50 PM 24.8 °F 11.5 °F 19.4 °F 80% 29.68 in 6.2 mi East 17.3 mph - N/A   Mostly Cloudy
2:00 PM 25 °F - 18 °F 66% 29.70 in 16 mi East 17.9 mph - -   Mostly Cloudy
2:20 PM 24.8 °F 12.9 °F 19.4 °F 80% 29.68 in 6.2 mi East 13.8 mph - N/A   Mostly Cloudy
2:50 PM 24.8 °F 13.4 °F 19.4 °F 80% 29.68 in 6.2 mi East 12.7 mph - N/A   Mostly Cloudy
3:00 PM 25 °F - 18 °F 66% 29.70 in 19 mi East 13.4 mph - -   Mostly Cloudy
3:20 PM 24.8 °F 12.4 °F 19.4 °F 80% 29.68 in 6.2 mi East 15.0 mph - N/A   Mostly Cloudy
3:50 PM 24.8 °F 12.9 °F 19.4 °F 80% 29.68 in 6.2 mi East 13.8 mph - N/A   Mostly Cloudy
4:20 PM 24.8 °F 12.9 °F 19.4 °F 80% 29.68 in 6.2 mi East 13.8 mph - N/A   Mostly Cloudy
4:50 PM 24.8 °F 13.4 °F 19.4 °F 80% 29.65 in 6.2 mi East 12.7 mph - N/A   Mostly Cloudy
5:00 PM 25 °F - 19 °F 68% 29.68 in 17 mi East 11.2 mph - -   Mostly Cloudy
5:20 PM 24.8 °F 14.0 °F 19.4 °F 80% 29.68 in 6.2 mi East 11.5 mph - N/A   Mostly Cloudy
5:50 PM 24.8 °F 12.4 °F 19.4 °F 80% 29.65 in 6.2 mi East 15.0 mph - N/A   Scattered Clouds
6:00 PM 25 °F - 18 °F 66% 29.68 in 19 mi East 13.4 mph - -   Partly Cloudy
6:20 PM 23.0 °F 13.9 °F 17.6 °F 80% 29.65 in 6.2 mi East 8.1 mph - N/A   Partly Cloudy
6:50 PM 23.0 °F 13.1 °F 17.6 °F 80% 29.65 in - ENE 9.2 mph - N/A   Clear
7:00 PM 23 °F - 18 °F 71% 29.68 in 19 mi ENE 8.9 mph - -   Clear
7:20 PM 21.2 °F 11.7 °F 17.6 °F 86% 29.68 in - ENE 8.1 mph - N/A   Clear
7:50 PM 21.2 °F 11.7 °F 17.6 °F 86% 29.68 in - ENE 8.1 mph - N/A   Clear
8:00 PM 21 °F - 17 °F 77% 29.70 in 19 mi ENE 8.9 mph - -   Clear
8:20 PM 21.2 °F 11.7 °F 17.6 °F 86% 29.68 in - East 8.1 mph - N/A   Clear
8:50 PM 21.2 °F 10.9 °F 17.6 °F 86% 29.68 in 6.2 mi East 9.2 mph - N/A   Partly Cloudy
9:00 PM 21 °F - 16 °F 74% 29.71 in 19 mi East 8.9 mph - -   Scattered Clouds
9:20 PM 21.2 °F 8.9 °F 15.8 °F 80% 29.68 in 6.2 mi East 12.7 mph - N/A   Partly Cloudy
9:50 PM 21.2 °F 9.5 °F 15.8 °F 80% 29.68 in 6.2 mi ESE 11.5 mph - N/A   Partly Cloudy
10:20 PM 21.2 °F 9.5 °F 15.8 °F 80% 29.68 in 6.2 mi ESE 11.5 mph - N/A   Partly Cloudy
10:50 PM 21.2 °F 10.1 °F 15.8 °F 80% 29.68 in 6.2 mi ESE 10.4 mph - N/A   Partly Cloudy
11:00 PM 21 °F - 14 °F 66% 29.69 in 19 mi ESE 11.2 mph - -   Scattered Clouds
11:20 PM 21.2 °F 11.7 °F 14.0 °F 74% 29.68 in 6.2 mi ESE 8.1 mph - N/A   Partly Cloudy
11:50 PM 19.4 °F 10.4 °F 14.0 °F 80% 29.68 in 6.2 mi East 6.9 mph - N/A   Partly Cloudy